Regional Weather Roundup
Issued by NWS

Home | Current Version | Previous Version | Text Only | Print | Product List | Glossary On
Versions: 1 2 3 4 5 6 7 8 9 10 11 12 13 14 15 16 17 18 19 20 21 22 23 24 25 26 27 28
000
ASUS44 KBMX 181210
RWRAL

ALABAMA REGIONAL WEATHER ROUNDUP
NATIONAL WEATHER SERVICE BIRMINGHAM AL
700 AM CDT FRI APR 18 2014

NOTE: "FAIR" INDICATES FEW OR NO CLOUDS BELOW 12,000 FEET
WITH NO SIGNIFICANT WEATHER AND/OR OBSTRUCTIONS TO VISIBILITY.

THE REMARK "TC" DENOTES TEMPERATURE IN DEGREES CELSIUS.

ALZ001>011-014-016>018-020-181300-
NORTH ALABAMA

CITY           SKY/WX    TMP DP  RH WIND       PRES   REMARKS
MUSCLE SHOALS  CLOUDY    59  46  62 E5        30.27R
6HR MIN TEMP:  58; 6HR MAX TEMP:  60;

HUNTSVILLE     CLOUDY    58  39  49 E9        30.26R
6HR MIN TEMP:  57; 6HR MAX TEMP:  60;

DECATUR        CLOUDY    57  42  57 E5        30.27R
6HR MIN TEMP:  55; 6HR MAX TEMP:  58;

HALEYVILLE     MOCLDY    54  45  71 VRB3      30.26R
6HR MIN TEMP:  54; 6HR MAX TEMP:  58;

GADSDEN        NOT AVBL
$$

ALZ012-013-022-023-030>036-040>044-181300-
WEST CENTRAL ALABAMA

CITY           SKY/WX    TMP DP  RH WIND       PRES   REMARKS
TUSCALOOSA     CLOUDY    58  50  75 NE6       30.23R
6HR MIN TEMP:  58; 6HR MAX TEMP:  61; 6HR PCP: TRACE;

$$

ALZ015-024>027-033>036-040>044-181300-
CENTRAL ALABAMA

CITY           SKY/WX    TMP DP  RH WIND       PRES   REMARKS
BIRMINGHAM     LGT RAIN  54  48  80 CALM      30.26R
6HR MIN TEMP:  54; 6HR MAX TEMP:  61; 6HR PCP:  0.01;

MONTGOMERY     RAIN      55  52  88 NE12      30.20R FOG
6HR MIN TEMP:  55; 6HR MAX TEMP:  62; 6HR PCP:  0.24;

SHELBY CO ARPT LGT RAIN  53  51  93 E7        30.23R FOG
6HR MIN TEMP:  53; 6HR MAX TEMP:  60; 6HR PCP:  0.16;

MAXWELL AFB    LGT RAIN  58  57  96 NE8       30.20S FOG
6HR MIN TEMP:  58; 6HR MAX TEMP:  65; 6HR PCP:  0.20;

GREENVILLE     RAIN      55  53  93 E12       30.15R FOG
6HR MIN TEMP:  55; 6HR MAX TEMP:  61; 6HR PCP:  0.61;

$$

ALZ019-021-028-029-037-038-045>048-181300-
EAST CENTRAL ALABAMA

CITY           SKY/WX    TMP DP  RH WIND       PRES   REMARKS
ANNISTON       CLOUDY    53  46  77 E9        30.26R
6HR MIN TEMP:  52; 6HR MAX TEMP:  59; 6HR PCP:  0.02;

ALEXANDER CITY RAIN      55  50  82 NE3       30.25R
6HR MIN TEMP:  55; 6HR MAX TEMP:  60; 6HR PCP:  0.18;

AUBURN         CLOUDY    50  48  93 E13       30.25R
6HR MIN TEMP:  50; 6HR MAX TEMP:  57; 6HR PCP:  0.26;

$$

ALZ051>064-181300-
SOUTHWEST ALABAMA

CITY           SKY/WX    TMP DP  RH WIND       PRES   REMARKS
MOBILE         LGT RAIN  59  59 100 NE12      30.07R FOG
6HR MIN TEMP:  59; 6HR MAX TEMP:  60; 6HR PCP:  0.26;

BROOKLEY FIELD RAIN      60  58  92 N10       30.07R FOG
6HR MIN TEMP:  60; 6HR MAX TEMP:  62;

EVERGREEN      RAIN      58  55  90 NE9       30.13S FOG
6HR MIN TEMP:  58; 6HR MAX TEMP:  60; 6HR PCP:  1.19;

$$

ALZ049-050-065>069-181300-
SOUTHEAST ALABAMA

CITY           SKY/WX    TMP DP  RH WIND       PRES   REMARKS
DOTHAN         HVY RAIN  54  53  97 NE10      30.18S FOG
6HR MIN TEMP:  54; 6HR MAX TEMP:  62; 6HR PCP:  1.36;

OZARK          HVY RAIN  54  54 100 NE15      30.13S FOG
6HR MIN TEMP:  54; 6HR MAX TEMP:  60; 6HR PCP:  1.67;

TROY           RAIN      55  52  89 E10       30.19R
6HR MIN TEMP:  55; 6HR MAX TEMP:  61; 6HR PCP:  0.50;

EUFAULA        CLOUDY    54  52  94 NE5       30.21R FOG
6HR MIN TEMP:  54; 6HR MAX TEMP:  57; 6HR PCP:  0.89;

$$



USA.gov is the U.S. government's official web portal to all federal, state and local government web resources and services.